COSMOS 1275 DEB, 42220

Orbit data source: Space-Track

COSMOS 1275 DEB, 42220 is space debris in LEO originally from a launch on Thu, 04 Jun 1981 UTC launched from the Plesetsk Missile And Space Complex (PKMTR). Debris objects in space refer to the collection of defunct objects orbiting the Earth. Examples of debris include non-operational satellites, rocket bodies, and fragments generated from explosions, collisions, or faulty payload assembly.

Loading next visibility...
Identifier
42220, 1981-053UL
Orbit
LEO
Country
Flag of CISCIS
Related business
Manufacturer
Unknown
Mission
Spacecraft
Bus & Motor
Unknown
Mass
Unknown
Launch date (UTC)
1981-06-04 (44 years ago)
Launch vehicle
Unknown
Launch site
Plesetsk Missile And Space Complex (PKMTR)
Object type
Payload
Rocket body
Debris
Shape & HBR
Unknown shape, 0.1 m
Radar Cross Section
Small (<0.1 m²)

Expand to show TLE details & history
Last TLE update: 1 day ago

TLE from 1 day ago
0 COSMOS 1275 DEB
1 42220U 81053UL  25291.31508401  .00012173  00000-0  28733-2 0  9997
2 42220  82.9077 138.9217 0022804 325.4761  34.4956 14.53972770620655
Epoch: 2025-10-18T07:33Z
TLE epoch observation values (Epoch: 2025-10-18T07:33:43.258Z)
Latitude
-0.00007°
Longitude
-1.55642°
Altitude
702.393 km
Speed
7.512 km/s
True Right ascension
09h 15m 41s
True Declination
0° 00' 00"
Sunlit
Object was in daylight at epoch
Visualization orbit readout
Latitude
Unknown
Longitude
Unknown
Altitude
Unknown
Speed
Unknown
Apparent Right ascension
Unknown
Apparent Declination
Unknown
Sunlit
N/A
Visualization observer readout
Local Sidereal Time
10:04:31
Azimuth
Unknown
Elevation
Unknown
Doppler factor
Unknown
Orbital elements
Apogee altitude
725.908 km
Perigee altitude
693.581 km
Semi-major axis
7,087.881 km
Eccentricity
0.00228
Inclination
82.9077°
RAAN
138.9217°
Arg. of periapsis
325.4761°
True anomaly
34.64394°
Mean anomaly
34.4956°
Eccentric anomaly
34.56974°
Mean motion
3.63721 °/min
Orbital period
98.98 mins
BSTAR
0.0028733
Loading maneuver chart data...
Computing Atmospheric mass density...

Documentation

Showing up to 5 results
|